STARLINK-30133, 56837

Orbit data source: Space-Track

STARLINK-30133, 56837 is a payload satellite owned by SpaceX/Seattle (US) in LEO that was launched on Sun, 04 Jun 2023 UTC via an FALCON 9 launch vehicle from the Air Force Eastern Test Range (AFETR). Payload-class satellites include a variety of spacecraft equipped with specific instruments for various scientific and technological missions. These include communications satellites like Starlink; space stations such as the ISS; scientific satellites like the Hubble; Earth observation satellites from companies like Planet Labs, Umbra, and HawkEye 360; GPS; miniature CubeSats for education and research; and military/defense satellites.

Loading next visibility...
Identifier
56837, 2023-079Q
Orbit
LEO
Country
Flag of USUS
Related business
Manufacturer
SpaceX/Seattle
Mission
Operational Commercial Communications
Bus & Motor
STARLINK V2M, Unknown motor
Mass
730 kg wet, ~700 kg dry
Launch date (UTC)
2023-06-04 (3 years ago)
Launch vehicle
FALCON 9
Launch site
Air Force Eastern Test Range (AFETR)
Object type
Payload
Rocket body
Debris
Shape & HBR
Box + 2 Pan, 17.7 m
Radar Cross Section
33.884 m², Large (>1 m²)

Expand to show TLE details & history
Last TLE update: 2 days ago

TLE from 2 days ago
0 STARLINK-30133
1 56837U 23079Q   26171.48238455 -.00001243  00000-0 -35654-4 0  9995
2 56837  43.0024 246.1335 0002077 284.6070  75.4552 15.27574230168617
Epoch: 2026-06-20T11:34Z
TLE epoch observation values (Epoch: 2026-06-20T11:34:38.025Z)
Latitude
0.00005°
Longitude
163.77874°
Altitude
482.484 km
Speed
7.626 km/s
True Right ascension
16h 24m 32s
True Declination
0° 00' 00"
Sunlit
Object was in full shadow at epoch
Visualization orbit readout
Latitude
Unknown
Longitude
Unknown
Altitude
Unknown
Speed
Unknown
Apparent Right ascension
Unknown
Apparent Declination
Unknown
Sunlit
N/A
Visualization observer readout
Local Sidereal Time
21:30:57
Azimuth
Unknown
Elevation
Unknown
Doppler factor
Unknown
Orbital elements
Apogee altitude
486.437 km
Perigee altitude
483.586 km
Semi-major axis
6,863.148 km
Eccentricity
0.00021
Inclination
43.0024°
RAAN
246.1335°
Arg. of periapsis
284.607°
True anomaly
75.47824°
Mean anomaly
75.4552°
Eccentric anomaly
75.46672°
Mean motion
3.81732 °/min
Orbital period
94.31 mins
BSTAR
-0.000035654
Loading maneuver chart data...
Computing Atmospheric mass density...
Loading historical data...
Loading historical data...
Loading historical data...
Loading historical data...
Loading historical data...
Loading historical data...
Loading historical data...

Documentation

Showing up to 5 results
|